EHI
0 0 0 0 0 0 0 0 0 1 0 0 0 1 1 1 0 0 2 6 8 7 5 7 10 10 8 6 5 5 4 1 0 0 0 0 1 3 4 2 0 0 0 0 0 0 0 1 3
0 0 0 0 0 0 0 0 0 1 0 0 1 2 2 2 1 1 3 8 9 7 5 7 10 10 7 5 3 3 2 1 0 0 0 0 1 2 3 1 0 1 1 0 0 0 0 1 2
0 0 0 0 0 0 0 0 0 0 1 2 3 4 3 3 3 2 4 8 9 7 5 7 10 9 5 3 2 1 1 0 0 0 0 0 0 1 1 0 0 1 1 0 0 0 0 1 1
0 0 0 0 0 0 0 0 0 0 1 4 6 5 2 2 5 6 7 9 10 7 5 7 10 8 5 3 2 1 0 0 0 0 0 0 0 0 0 0 0 1 1 0 0 0 0 0 0
0 0 0 0 0 0 0 0 1 2 4 5 7 6 3 4 11 13 10 10 11 10 6 7 10 10 7 5 3 2 1 0 0 0 0 0 0 0 0 0 0 0 0 0 0 0 0 0 0
0 0 0 0 0 0 0 0 2 4 5 6 8 8 5 8 15 13 8 9 12 11 7 6 9 11 9 7 5 4 2 1 0 0 0 0 0 0 0 0 0 0 0 0 0 0 0 0 0
0 0 0 0 0 0 0 0 1 2 4 6 7 6 6 10 15 12 7 8 12 12 8 6 7 8 7 6 6 5 3 1 0 0 0 0 0 1 2 2 1 1 1 1 1 0 0 0 0
0 0 0 0 0 0 0 0 1 1 2 4 4 2 4 12 18 17 13 11 11 10 8 6 5 4 4 3 4 5 4 2 1 0 0 0 0 1 2 3 3 3 3 3 2 2 2 1 0
0 0 0 0 0 1 1 2 2 2 3 4 5 4 7 15 23 25 21 15 11 8 6 6 5 3 2 2 3 3 3 2 1 0 0 0 0 1 1 3 5 4 4 3 3 3 3 1 0
0 0 0 0 0 1 3 3 2 2 4 8 11 12 13 18 25 28 24 18 13 9 6 5 4 3 2 3 3 2 1 1 1 0 0 0 0 0 0 1 3 4 4 4 3 3 3 1 0
0 0 0 0 1 2 3 3 1 1 4 11 16 17 17 19 23 24 23 18 14 11 7 4 2 1 2 3 3 3 2 1 0 0 1 1 0 0 0 0 1 2 4 4 4 3 3 1 1
0 0 0 1 2 2 3 2 1 1 5 11 16 18 16 16 19 20 20 18 15 12 10 7 3 2 2 3 5 5 4 2 1 1 2 2 1 0 0 0 1 2 3 4 4 3 3 3 2
0 0 1 1 1 1 1 1 0 2 7 12 16 16 15 14 15 17 19 21 19 17 15 14 10 7 5 6 8 7 5 4 3 3 4 3 2 1 0 0 1 3 3 4 3 3 3 3 2
0 0 1 1 1 0 1 0 0 3 7 11 13 15 15 15 16 17 20 24 23 21 20 19 17 12 9 10 12 11 8 5 4 3 4 3 3 2 1 1 2 3 3 3 3 3 3 2 1
0 0 0 0 0 0 1 0 1 4 7 9 11 14 17 19 18 20 23 24 22 21 20 19 17 14 11 11 13 13 10 7 5 4 4 3 3 3 1 1 3 3 3 3 3 3 3 2 1
0 0 0 0 0 0 0 0 1 4 7 10 12 16 20 20 18 21 24 22 20 20 20 18 16 16 14 13 13 14 13 10 7 6 5 4 3 3 3 3 3 3 3 3 3 3 3 2 1
0 0 0 0 0 0 0 1 4 7 9 13 15 18 20 19 18 20 22 22 20 21 22 20 18 18 20 19 18 17 16 13 11 9 9 7 5 4 4 3 3 3 3 3 3 3 3 2 2
0 0 0 0 0 1 1 3 6 8 11 14 17 17 17 17 17 20 23 24 24 24 25 24 22 20 23 25 24 20 19 16 13 13 13 11 10 8 6 4 3 3 3 3 3 3 3 1 1
0 0 0 0 0 1 3 4 6 8 11 14 17 17 15 14 17 22 27 30 30 28 27 28 25 22 23 26 25 21 19 16 14 14 15 14 13 11 9 6 4 3 4 4 3 3 2 1 1
0 0 0 0 0 1 2 4 6 8 11 15 18 17 15 15 19 25 32 34 33 30 28 29 27 24 23 24 23 20 18 16 14 14 14 13 12 11 10 8 6 5 5 5 4 3 1 1 1
0 0 0 0 0 0 1 2 4 7 12 18 20 18 18 18 22 29 35 36 34 33 32 31 29 27 24 23 21 19 17 16 15 14 13 12 12 11 10 9 8 6 6 5 3 2 1 1 1
0 0 0 0 0 0 0 1 2 6 12 18 20 20 20 20 23 30 37 38 36 35 35 34 31 28 26 24 21 18 16 15 14 13 12 11 12 11 11 10 9 7 6 5 2 1 1 1 1
0 0 0 0 0 0 0 1 2 4 9 13 16 19 19 17 20 27 34 38 39 38 37 35 31 28 26 24 20 16 14 12 12 11 11 10 11 11 10 10 9 7 6 4 1 0 0 0 0
0 0 0 0 0 0 0 1 2 3 5 7 10 15 17 17 18 23 31 38 41 42 41 38 33 28 26 23 18 15 13 11 11 11 11 11 11 10 10 10 9 7 5 3 1 0 0 0 0
0 0 0 0 0 0 0 1 1 3 4 5 8 13 18 21 20 22 29 37 42 45 46 43 36 31 28 25 20 16 14 12 12 12 13 12 11 10 10 10 9 7 4 3 1 0 0 0 0
0 0 0 0 0 0 0 1 2 3 4 7 9 14 20 24 23 23 28 36 42 46 48 46 40 35 32 29 25 21 18 16 15 14 14 13 10 10 10 10 9 7 4 2 1 0 0 0 0
0 0 0 0 0 0 0 1 2 4 7 10 12 15 21 25 26 25 27 33 39 43 45 44 41 37 35 33 31 27 23 20 18 17 15 13 10 11 12 13 11 7 4 2 0 0 0 0 0
0 0 0 0 0 0 0 1 3 5 8 11 13 16 21 26 29 28 27 30 34 37 40 41 40 39 37 35 34 30 25 24 23 21 19 14 12 13 15 15 12 7 4 2 1 1 0 0 0
0 0 0 0 0 0 1 2 3 4 6 10 12 15 19 24 28 28 26 25 28 31 33 36 39 40 39 37 34 29 25 25 26 25 23 18 15 15 16 15 11 6 3 3 4 2 1 0 0
0 0 0 0 0 0 1 2 3 2 4 7 11 13 15 21 26 26 23 22 25 28 30 32 37 41 41 37 34 29 25 25 27 28 26 21 17 15 15 13 9 4 3 5 5 3 1 0 0
Wind_Speed
3 2 1 2 4 5 1 3 2 2 4 5 8 9 8 6 5 5 4 13 14 11 8 11 13 13 12 12 11 11 10 10 10 11 11 11 11 11 10 10 9 9 9 10 10 9 9 10 9
2 2 2 4 5 2 3 2 3 3 6 8 8 8 8 7 7 10 7 13 14 12 8 10 13 13 12 12 11 11 11 10 10 10 11 11 11 10 10 10 9 9 10 10 9 8 8 8 9
2 2 3 4 2 3 3 2 4 5 5 7 6 6 6 7 9 7 10 16 13 10 8 10 14 13 12 12 11 11 10 10 10 10 10 11 10 10 10 10 9 9 9 9 8 8 7 7 8
1 3 3 3 2 5 5 3 5 6 4 6 8 7 5 5 7 10 16 16 13 9 7 10 15 13 12 12 11 11 11 10 10 10 10 10 10 9 9 9 9 9 8 8 7 7 7 7 7
3 4 4 2 4 4 3 4 4 5 4 7 9 7 5 4 14 18 16 15 14 10 7 9 14 13 12 12 11 11 10 10 9 9 9 9 9 8 8 8 8 8 8 7 7 6 6 6 6
3 4 3 1 5 3 1 3 6 9 8 9 10 8 4 8 15 15 15 14 13 12 8 8 13 13 12 12 11 11 10 9 8 8 8 8 8 8 8 8 7 7 7 7 6 6 6 6 5
3 3 2 3 3 4 2 1 7 8 7 6 9 8 5 7 11 13 13 13 12 11 9 6 7 9 11 11 11 10 9 8 8 8 8 8 8 8 8 7 6 6 6 6 5 5 5 5 5
5 3 1 2 1 4 2 1 3 7 6 8 7 9 9 10 10 12 12 11 10 9 8 6 5 5 5 6 10 10 9 8 8 8 8 8 7 7 7 6 6 6 5 4 4 4 4 4 4
3 3 3 4 2 3 2 1 2 3 6 4 4 7 13 16 14 14 11 9 8 8 6 6 6 5 5 5 7 7 8 7 7 6 7 6 3 2 3 5 5 5 4 3 3 3 3 3 3
4 3 7 5 4 4 3 3 2 4 6 6 8 10 14 15 15 15 13 11 10 9 8 6 6 6 5 5 4 3 3 3 3 2 3 2 2 2 3 4 4 4 4 3 2 2 2 1 1
4 6 6 5 5 5 3 2 2 7 4 9 15 16 15 14 12 13 13 12 11 10 9 8 7 6 6 4 4 2 2 2 2 2 3 2 2 1 1 1 1 1 2 1 0 0 0 1 1
3 6 5 5 3 3 4 2 2 5 7 12 17 19 16 14 12 12 12 11 10 10 9 8 8 7 5 5 4 3 2 2 2 2 3 3 2 1 1 1 1 1 1 1 0 0 1 1 1
4 6 5 4 2 3 3 3 3 3 9 12 15 15 14 14 12 10 11 11 10 9 9 9 9 8 6 5 3 4 3 3 3 2 3 3 2 2 2 1 1 1 1 1 1 1 1 1 1
5 4 5 4 3 2 3 1 4 4 9 13 14 12 13 13 12 10 10 9 9 9 8 7 8 8 7 5 4 4 3 3 3 2 3 3 2 2 2 2 1 1 1 1 1 1 2 1 1
2 3 6 4 3 2 4 1 3 8 11 12 12 12 12 10 11 12 12 11 10 9 8 7 7 6 6 6 5 4 4 4 3 3 3 3 3 3 3 2 2 1 1 1 1 2 2 2 2
4 3 4 7 3 2 6 4 6 8 12 11 11 11 11 9 11 11 11 9 9 9 8 7 6 6 6 5 4 4 3 4 3 3 3 3 3 3 3 2 1 1 2 2 2 2 2 2 2
3 1 4 8 4 2 5 5 6 7 11 10 10 10 10 9 9 9 10 10 10 9 9 7 6 6 5 5 4 4 3 3 3 3 2 3 3 3 3 2 1 1 2 2 2 2 2 2 2
4 3 4 6 4 2 3 5 5 8 11 11 10 8 8 10 10 10 10 10 9 9 9 8 6 6 5 4 3 3 2 2 2 2 2 3 3 3 3 2 2 2 2 2 2 2 2 2 2
4 4 6 7 5 1 4 5 7 7 8 9 9 9 9 8 8 9 10 10 9 8 8 7 7 6 5 3 3 3 3 2 1 2 3 3 3 3 3 2 2 2 2 2 2 3 2 1 1
5 5 6 7 4 1 2 3 5 7 9 12 13 12 11 8 7 8 9 9 9 9 8 7 7 6 6 4 4 3 3 2 2 2 2 3 3 3 3 3 2 2 2 2 2 2 2 1 1
6 5 5 5 4 3 2 2 3 3 4 6 9 10 11 12 12 11 10 9 10 9 9 8 7 7 6 5 3 3 2 2 1 1 2 2 3 4 3 3 3 2 2 2 1 2 3 1 0
7 7 5 3 0 3 2 2 6 4 3 5 7 8 10 11 11 11 11 11 11 10 9 8 8 7 6 6 5 6 5 4 4 3 2 2 3 3 4 4 4 3 2 2 1 2 2 3 1
7 5 2 2 2 2 1 2 6 2 4 7 9 10 10 11 12 12 12 12 11 10 9 7 6 5 5 6 7 6 4 3 2 2 3 3 2 3 4 4 3 3 2 2 2 2 2 2 2
4 2 4 4 4 2 5 3 6 5 8 8 8 10 11 12 11 11 10 9 8 8 7 7 7 5 5 6 6 6 6 5 4 4 4 3 2 2 3 3 3 3 2 2 2 2 2 2 2
3 5 4 5 4 6 4 2 8 7 7 9 8 9 10 10 10 9 10 10 10 9 9 8 8 6 5 6 6 6 7 7 7 6 5 4 3 2 3 3 3 2 2 2 2 2 2 2 2
3 9 8 5 5 5 4 4 6 4 3 3 5 7 8 8 9 10 11 12 11 11 9 9 9 8 7 7 6 5 6 5 5 5 5 5 4 4 4 4 3 3 3 2 2 1 1 1 1
3 3 8 7 2 1 4 5 5 4 3 2 2 5 7 7 7 8 9 10 10 10 10 10 9 7 7 7 6 5 5 5 5 5 5 4 4 4 4 4 4 3 3 3 2 1 2 1 1
4 5 5 5 3 3 4 3 3 3 2 1 1 4 5 6 6 6 7 8 8 8 8 8 9 8 7 6 5 5 5 5 5 5 5 5 5 4 5 5 4 3 3 3 2 2 1 1 1
1 2 4 4 5 5 3 6 4 3 2 2 3 5 6 7 7 7 6 7 6 6 6 7 7 7 6 6 5 4 4 4 5 5 5 6 5 5 5 5 5 4 3 3 2 2 2 2 1
3 4 6 4 3 4 4 7 3 1 1 1 1 3 5 6 6 6 5 5 5 5 5 5 6 6 7 6 5 4 3 4 5 5 5 6 6 5 5 5 4 4 4 3 3 3 2 2 2
Wind_Direction
197 192 135 64 52 49 308 254 149 81 51 59 77 87 89 79 116 144 149 139 137 140 141 134 128 122 115 110 106 102 99 99 100 102 104 105 103 102 104 105 106 110 114 116 113 115 116 115 115
200 175 63 54 74 53 285 223 111 129 140 118 87 88 83 74 90 114 125 140 139 139 140 135 130 124 119 113 108 104 102 102 102 104 104 105 106 106 107 107 106 110 117 119 118 119 118 118 116
235 177 85 69 94 184 240 196 139 127 130 113 94 68 79 110 115 127 140 142 136 134 138 137 130 126 122 118 112 107 106 105 105 107 106 106 108 111 111 110 109 112 117 119 120 123 122 118 117
99 52 50 74 239 235 213 213 145 115 84 86 101 76 65 103 122 131 136 139 132 133 138 138 132 130 126 122 116 112 109 109 109 109 110 109 108 111 113 113 111 114 120 123 121 124 124 119 117
73 75 51 3 265 256 215 200 160 121 109 103 101 93 67 70 116 129 135 137 133 136 138 139 135 133 130 126 121 117 114 113 114 113 113 114 112 113 117 118 118 117 122 129 125 122 126 124 113
53 70 75 276 280 283 245 163 129 106 114 112 106 105 96 120 126 137 138 138 135 137 138 140 140 137 134 131 128 124 120 118 117 118 119 118 117 116 119 124 125 125 125 127 125 119 115 115 114
120 102 185 229 274 289 250 140 129 136 139 138 129 108 124 139 142 139 136 135 134 135 136 140 142 140 140 137 134 130 125 123 121 120 123 124 124 123 122 128 129 129 130 133 134 132 131 128 125
150 104 278 259 253 271 249 68 113 129 123 128 125 132 153 162 140 130 130 130 130 131 134 137 138 135 137 140 141 137 133 132 129 129 128 127 127 126 126 129 136 140 140 143 143 141 136 129 122
118 85 243 233 197 251 247 96 21 74 110 110 106 136 148 147 134 129 127 126 134 137 143 144 143 142 142 143 149 147 145 143 139 137 139 137 129 131 128 138 146 148 154 159 151 148 143 123 101
115 164 232 225 198 216 242 163 141 78 92 92 92 108 133 140 140 141 145 149 152 154 159 154 154 154 151 151 143 146 149 148 143 146 148 139 142 150 140 151 151 153 153 150 156 160 157 108 77
173 207 242 257 224 196 220 212 155 124 129 150 144 144 147 145 147 149 154 158 160 160 158 159 158 157 159 151 145 149 148 151 160 164 160 151 147 149 137 141 154 157 133 104 114 144 90 93 100
232 254 245 257 238 191 187 179 144 146 171 162 150 147 149 148 155 162 158 157 153 155 160 162 161 158 158 152 158 160 155 161 168 167 157 146 140 149 166 159 162 147 126 120 93 110 110 110 135
250 259 259 246 261 211 166 160 140 148 142 142 141 145 149 152 158 163 156 152 150 154 159 162 163 161 159 155 166 159 164 170 169 160 161 153 150 154 151 142 137 140 135 128 114 95 111 138 131
245 264 280 261 268 246 159 178 107 152 143 142 146 154 156 160 156 148 147 147 153 156 158 159 160 160 155 158 161 159 165 163 158 157 157 153 150 145 136 134 135 146 151 146 135 123 124 122 111
278 316 314 282 257 224 114 354 189 171 148 150 154 154 154 156 152 155 158 154 154 154 152 155 161 158 152 154 160 157 160 155 155 161 156 148 141 141 143 137 135 147 133 125 100 87 89 99 103
355 360 303 283 248 223 123 220 229 172 153 155 156 158 155 157 161 161 154 148 150 149 152 160 163 157 154 154 152 149 153 152 155 157 152 154 148 141 138 132 136 125 112 103 106 102 98 94 93
1 287 270 288 268 193 151 206 224 177 159 158 162 163 157 151 156 156 153 153 155 153 153 159 165 160 154 149 141 140 146 151 153 148 151 156 149 142 135 134 135 117 102 99 108 103 118 115 104
246 250 264 268 282 151 172 210 211 182 168 167 165 162 158 156 164 163 157 158 155 151 150 159 165 163 155 142 128 126 130 148 145 147 153 152 148 143 136 132 121 114 103 93 96 107 101 117 126
225 248 266 269 263 173 197 211 211 184 167 169 167 166 163 167 168 163 160 156 150 150 152 156 160 168 157 149 153 156 167 170 163 164 154 155 151 143 136 131 126 122 126 139 126 116 109 99 103
237 252 269 289 284 177 191 220 218 191 184 179 173 172 170 168 163 165 163 158 157 160 163 162 164 170 169 169 169 166 160 165 173 169 158 161 154 148 145 139 139 132 123 117 112 113 119 134 114
255 225 237 250 310 359 96 309 248 231 184 179 181 172 171 172 173 172 170 170 165 166 170 170 170 170 171 160 139 130 107 97 115 146 176 183 165 158 152 150 145 134 126 138 140 124 128 135 42
253 247 231 232 239 277 142 230 274 229 210 191 192 184 180 175 172 174 172 172 173 175 175 172 169 167 167 157 153 154 160 172 189 181 180 180 168 159 160 158 152 144 136 145 162 135 134 131 130
225 238 226 216 194 297 336 150 270 239 219 218 204 187 182 176 174 177 179 176 175 173 172 170 163 160 163 164 165 163 168 177 165 154 157 169 171 165 165 157 152 152 150 156 159 145 143 143 143
199 39 10 37 69 301 254 174 261 236 218 220 206 188 184 177 175 177 174 165 167 167 165 162 159 169 171 170 172 172 172 168 158 162 166 173 172 171 171 160 159 159 156 162 166 168 160 161 142
108 93 29 354 0 257 263 199 243 246 224 209 200 188 182 170 167 169 164 165 168 169 168 164 165 175 181 177 183 186 183 175 175 176 171 172 170 177 188 172 168 167 174 173 162 158 164 166 159
186 140 158 194 226 272 316 234 254 260 229 197 181 172 167 161 165 169 169 169 169 171 169 168 172 180 186 186 189 190 184 179 180 177 172 179 181 185 181 175 175 175 177 178 164 166 191 179 174
165 171 171 149 194 259 281 282 309 350 12 49 140 153 164 163 163 165 165 166 167 170 174 175 178 182 189 190 185 182 182 179 179 179 177 182 182 178 172 173 176 182 180 177 164 181 213 196 179
158 160 98 116 162 242 277 266 258 304 317 28 133 157 163 155 147 152 153 159 163 168 175 178 175 180 187 185 185 181 186 184 180 175 178 177 178 173 170 175 178 181 181 179 174 183 203 181 199
25 82 108 126 153 161 240 269 236 220 232 200 186 168 162 159 156 151 150 151 151 151 161 173 176 175 179 185 188 187 187 182 177 178 179 177 173 173 177 181 179 181 185 186 183 200 179 174 199
162 168 139 145 228 169 172 259 270 191 248 177 160 148 149 148 150 149 151 148 148 148 154 163 172 172 178 182 176 181 186 178 177 182 180 173 171 177 181 180 178 184 187 188 188 199 188 179 192